This is the latest recevied weather packets stored in our database for station/object SQ5LTL-2. If no packets are shown the sender has not sent any weather packets the latest 1 day(s).
| Time | Temp. | Humidity | Pressure | Rain* | Wind** | Luminosity | Snow |
|---|---|---|---|---|---|---|---|
| 1778003118 | 21.67° C | 38% | 1007.4 hPa | 0 mm | 0 m/s | 9 W/m² | - |
| 1778002817 | 22.22° C | 37% | 1007.4 hPa | 0 mm | 0 m/s | 13 W/m² | - |
| 1778001933 | 21.67° C | 36% | 1007.4 hPa | 0 mm | 0 m/s | 26 W/m² | - |
| 1778000425 | 22.78° C | 34% | 1007.5 hPa | 0 mm | 0 m/s | 33 W/m² | - |
| 1777998335 | 24.44° C | 30% | 1007.8 hPa | 0 mm | 0 m/s | 55 W/m² | - |
| 1777998035 | 24.44° C | 30% | 1007.8 hPa | 0 mm | 0 m/s | 62 W/m² | - |
| 1777997732 | 24.44° C | 29% | 1007.8 hPa | 0 mm | 0 m/s | 68 W/m² | - |
| 1777997431 | 25° C | 29% | 1007.8 hPa | 0 mm | 0 m/s | 72 W/m² | - |
| 1777997129 | 25° C | 28% | 1007.9 hPa | 0 mm | 0.45 m/s, 194° | 71 W/m² | - |
| 1777996827 | 25° C | 27% | 1007.9 hPa | 0 mm | 0.89 m/s, 177° | 67 W/m² | - |
| 1777996526 | 25.56° C | 26% | 1007.9 hPa | 0 mm | 0.89 m/s, 183° | 64 W/m² | - |
| 1777996225 | 25.56° C | 26% | 1008.1 hPa | 0 mm | 1.34 m/s, 196° | 67 W/m² | - |
| 1777995924 | 26.11° C | 26% | 1008 hPa | 0 mm | 1.34 m/s, 182° | 80 W/m² | - |
| 1777995622 | 26.11° C | 25% | 1008.2 hPa | 0 mm | 1.79 m/s, 185° | 105 W/m² | - |
| 1777995320 | 26.11° C | 25% | 1008.1 hPa | 0 mm | 2.24 m/s, 190° | 153 W/m² | - |
| 1777995019 | 26.67° C | 25% | 1008.2 hPa | 0 mm | 1.34 m/s, 182° | 188 W/m² | - |
| 1777994718 | 26.11° C | 25% | 1008.2 hPa | 0 mm | 1.34 m/s, 197° | 210 W/m² | - |
| 1777994416 | 26.11° C | 25% | 1008.3 hPa | 0 mm | 1.79 m/s, 186° | 189 W/m² | - |
| 1777994136 | 25.56° C | 25% | 1008.3 hPa | 0 mm | 1.34 m/s, 178° | 161 W/m² | - |
| 1777993833 | 25.56° C | 25% | 1008.2 hPa | 0 mm | 1.34 m/s, 196° | 133 W/m² | - |
| 1777993532 | 25.56° C | 25% | 1008.3 hPa | 0 mm | 1.79 m/s, 183° | 122 W/m² | - |
| 1777993230 | 25.56° C | 24% | 1008.4 hPa | 0 mm | 1.79 m/s, 191° | 122 W/m² | - |
| 1777992930 | 25.56° C | 24% | 1008.4 hPa | 0 mm | 0.89 m/s, 198° | 130 W/m² | - |
| 1777992627 | 26.11° C | 24% | 1008.4 hPa | 0 mm | 0.89 m/s, 194° | 136 W/m² | - |
| 1777992326 | 26.11° C | 24% | 1008.5 hPa | 0 mm | 1.34 m/s, 197° | 148 W/m² | - |
* Rain latest hour (hover to see other rain measurements)
** Current wind speed in m/s (hover to see current wind gust speed)